Location: �terpigny
(49.8910°N, 2.9249°E)
Time: 03:42:33
(UTC+00:00)

COSMO-SKYMED 1 - Pass Details

Date: 24 October 2021
Orbit: 621 x 623 km, 97.9° (Epoch: 05 December)

Event Time Altitude Azimuth Distance (km) Brightness Sun altitude
Rises 17:49:25 0° 16° (NNE) 2,918 5.8 -11.9°
Reaches altitude 10° 17:51:38 10° 19° (NNE) 2,006 4.9 -12.2°
Maximum altitude 17:55:58 64° 101° (ESE) 696 2.5 -12.9°
Drops below altitude 10° 18:00:16 10° 184° (S) 1,989 5.2 -13.6°
Sets 18:02:28 0° 187° (S) 2,890 6.1 -14.0°
